Simultaneous Nadir Overpasses (SNOs) Predictions

Prediction of SNOs between AQUA and NPP Satellite Orbit:

Table of predicted SNOs for the next 14.0 days since TLE Epoch: 1/10/2020
Index Date (AQUA) Time (AQUA) Lat,Lon (AQUA) SZA (AQUA ) Date (NPP) Time (NPP) Lat,Lon (NPP) SZA (NPP ) Distance(km) Time Diff (sec)
1 01/12/2020 06:21:26 -76.21, 144.34 61.43 01/12/2020 06:21:00 -76.22, 144.42 61.43 2.30 26
2 01/12/2020 07:10:34 77.06, -45.09 117.61 01/12/2020 07:11:25 77.06, -45.04 117.55 1.25 51
3 01/14/2020 21:53:57 58.03, 68.69 135.53 01/14/2020 21:52:45 58.23, 67.27 136.07 86.63 72
4 01/14/2020 22:37:55 -76.27, -99.58 61.89 01/14/2020 22:37:52 -76.27, -99.63 61.87 1.45 3
5 01/14/2020 23:26:55 77.48, 72.45 116.72 01/14/2020 23:28:09 77.45, 72.42 116.67 3.44 74
6 01/17/2020 14:05:09 75.71,-153.07 118.31 01/17/2020 14:04:11 75.71,-153.03 118.35 1.10 58
7 01/17/2020 14:54:15 -76.76, 17.94 62.88 01/17/2020 14:54:34 -76.76, 17.99 62.91 1.31 19
8 01/20/2020 06:21:36 75.85, -36.77 117.66 01/20/2020 06:21:01 75.85, -36.81 117.70 1.09 35
9 01/20/2020 07:10:43 -76.85, 134.16 63.48 01/20/2020 07:11:25 -76.85, 134.12 63.51 1.28 42
10 01/22/2020 22:38:00 76.09, 79.83 116.86 01/22/2020 22:37:48 76.08, 79.74 116.90 2.68 12




NCC Satellite Simultaneous Nadir Overpasses (SNOs) Prediction Service
